When you browse on this site, cookies collect data to enhance your experience and personalize the content and advertising you see.
Visit our Privacy Policy to learn more. By continuing to use the site, you agree to this use of cookies and data.
  • în România
  • Lista ţărilor
  • Pe 7 zile
  • Temperatura apei
  • Meteo pe hartă
  • Widget-uri
  • user-avatar
    Intrare

    Meteo pe oră la Banfora

    Astăzi, 23 Noiembrie, Sâmbătă

    Timp Temperatura Precipitaţii Vânt Presiune Umiditate
    00:00 +28°C° 0 mm 1 m/s 732 mmHg 25%
    01:00 +27°C° 0 mm 1 m/s 732 mmHg 26%
    02:00 +27°C° 0 mm 1 m/s 732 mmHg 27%
    03:00 +26°C° 0 mm 1 m/s 732 mmHg 27%
    04:00 +26°C° 0 mm 1 m/s 732 mmHg 28%
    05:00 +26°C° 0 mm 1 m/s 732 mmHg 29%
    06:00 +25°C° 0 mm 1 m/s 732 mmHg 30%
    07:00 +27°C° 0 mm 1 m/s 732 mmHg 28%
    08:00 +30°C° 0 mm 1 m/s 733 mmHg 26%
    09:00 +32°C° 0 mm 1 m/s 734 mmHg 23%
    10:00 +34°C° 0 mm 1 m/s 733 mmHg 22%
    11:00 +37°C° 0 mm 2 m/s 733 mmHg 21%
    12:00 +39°C° 0 mm 2 m/s 733 mmHg 20%
    13:00 +39°C° 0 mm 2 m/s 732 mmHg 18%
    14:00 +40°C° 0 mm 2 m/s 731 mmHg 17%
    15:00 +40°C° 0 mm 2 m/s 730 mmHg 16%
    16:00 +38°C° 0 mm 2 m/s 730 mmHg 18%
    17:00 +35°C° 0 mm 1 m/s 731 mmHg 20%
    18:00 +33°C° 0 mm 1 m/s 731 mmHg 22%
    19:00 +32°C° 0 mm 1 m/s 731 mmHg 23%
    20:00 +31°C° 0 mm 1 m/s 732 mmHg 23%
    21:00 +30°C° 0 mm 1 m/s 732 mmHg 23%
    22:00 +30°C° 0 mm 1 m/s 732 mmHg 24%
    23:00 +29°C° 0 mm 1 m/s 732 mmHg 24%

    Mâine, 24 Noiembrie, Duminică

    Timp Temperatura Precipitaţii Vânt Presiune Umiditate
    00:00 +29°C° 0 mm 1 m/s 732 mmHg 24%
    01:00 +28°C° 0 mm 1 m/s 732 mmHg 25%
    02:00 +25°C° 0 mm 0 m/s 732 mmHg 26%
    03:00 +25°C° 0 mm 0 m/s 731 mmHg 28%
    04:00 +24°C° 0 mm 0 m/s 731 mmHg 29%
    05:00 +24°C° 0 mm 0 m/s 732 mmHg 30%
    06:00 +23°C° 0 mm 0 m/s 732 mmHg 32%
    07:00 +26°C° 0 mm 0 m/s 732 mmHg 30%
    08:00 +28°C° 0 mm 0 m/s 733 mmHg 28%
    09:00 +32°C° 0 mm 1 m/s 734 mmHg 26%
    10:00 +35°C° 0 mm 1 m/s 734 mmHg 25%
    11:00 +37°C° 0 mm 1 m/s 733 mmHg 24%
    12:00 +40°C° 0 mm 1 m/s 733 mmHg 22%
    13:00 +40°C° 0 mm 1 m/s 732 mmHg 20%
    14:00 +40°C° 0 mm 2 m/s 731 mmHg 19%
    15:00 +40°C° 0 mm 2 m/s 731 mmHg 17%
    16:00 +38°C° 0 mm 2 m/s 731 mmHg 19%
    17:00 +36°C° 0 mm 2 m/s 730 mmHg 20%
    18:00 +33°C° 0 mm 1 m/s 730 mmHg 21%
    19:00 +32°C° 0 mm 1 m/s 731 mmHg 22%
    20:00 +31°C° 0 mm 1 m/s 732 mmHg 22%
    21:00 +30°C° 0 mm 1 m/s 732 mmHg 23%
    22:00 +30°C° 0 mm 1 m/s 732 mmHg 23%
    23:00 +29°C° 0 mm 1 m/s 732 mmHg 24%

    Poimâine, 25 Noiembrie, Luni

    Timp Temperatura Precipitaţii Vânt Presiune Umiditate
    00:00 +27°C° 0 mm 0 m/s 732 mmHg 24%
    01:00 +26°C° 0 mm 0 m/s 732 mmHg 26%
    02:00 +25°C° 0 mm 0 m/s 731 mmHg 28%
    03:00 +24°C° 0 mm 0 m/s 731 mmHg 30%
    04:00 +24°C° 0 mm 0 m/s 731 mmHg 33%
    05:00 +24°C° 0 mm 0 m/s 732 mmHg 36%
    06:00 +23°C° 0 mm 0 m/s 732 mmHg 40%
    07:00 +25°C° 0 mm 0 m/s 733 mmHg 42%
    08:00 +29°C° 0 mm 1 m/s 733 mmHg 44%
    09:00 +31°C° 0 mm 1 m/s 734 mmHg 46%
    10:00 +34°C° 0 mm 1 m/s 733 mmHg 39%
    11:00 +37°C° 0 mm 1 m/s 733 mmHg 33%
    12:00 +37°C° 0 mm 0 m/s 733 mmHg 26%
    13:00 +40°C° 0 mm 1 m/s 732 mmHg 24%
    14:00 +40°C° 0 mm 2 m/s 731 mmHg 22%
    15:00 +40°C° 0 mm 2 m/s 731 mmHg 19%
    16:00 +38°C° 0 mm 2 m/s 731 mmHg 20%
    17:00 +36°C° 0 mm 2 m/s 730 mmHg 21%
    18:00 +33°C° 0 mm 1 m/s 730 mmHg 22%
    19:00 +32°C° 0 mm 1 m/s 731 mmHg 22%
    20:00 +31°C° 0 mm 1 m/s 732 mmHg 23%
    21:00 +28°C° 0 mm 0 m/s 732 mmHg 23%
    22:00 +28°C° 0 mm 0 m/s 732 mmHg 23%
    23:00 +27°C° 0 mm 0 m/s 732 mmHg 24%

    26 Noiembrie, Marţi

    Timp Temperatura Precipitaţii Vânt Presiune Umiditate
    00:00 +26°C° 0 mm 0 m/s 732 mmHg 24%
    01:00 +26°C° 0 mm 0 m/s 732 mmHg 26%
    02:00 +25°C° 0 mm 0 m/s 731 mmHg 27%
    03:00 +25°C° 0 mm 0 m/s 731 mmHg 28%
    04:00 +24°C° 0 mm 0 m/s 731 mmHg 31%
    05:00 +24°C° 0 mm 0 m/s 731 mmHg 33%
    06:00 +23°C° 0 mm 0 m/s 732 mmHg 35%
    07:00 +26°C° 0 mm 0 m/s 732 mmHg 35%
    08:00 +28°C° 0 mm 0 m/s 733 mmHg 34%
    09:00 +30°C° 0 mm 0 m/s 733 mmHg 34%
    10:00 +34°C° 0 mm 1 m/s 733 mmHg 29%
    11:00 +36°C° 0 mm 1 m/s 733 mmHg 24%
    12:00 +39°C° 0 mm 1 m/s 732 mmHg 19%
    13:00 +39°C° 0 mm 2 m/s 732 mmHg 17%
    14:00 +40°C° 0 mm 2 m/s 731 mmHg 15%
    15:00 +40°C° 0 mm 2 m/s 730 mmHg 13%
    16:00 +38°C° 0 mm 2 m/s 730 mmHg 15%
    17:00 +35°C° 0 mm 1 m/s 730 mmHg 17%
    18:00 +33°C° 0 mm 1 m/s 730 mmHg 19%
    19:00 +32°C° 0 mm 1 m/s 731 mmHg 20%
    20:00 +29°C° 0 mm 0 m/s 731 mmHg 21%
    21:00 +27°C° 0 mm 0 m/s 732 mmHg 22%
    22:00 +27°C° 0 mm 0 m/s 732 mmHg 22%
    23:00 +26°C° 0 mm 0 m/s 732 mmHg 23%

    27 Noiembrie, Miercuri

    Timp Temperatura Precipitaţii Vânt Presiune Umiditate
    00:00 +26°C° 0 mm 0 m/s 732 mmHg 24%
    01:00 +25°C° 0 mm 0 m/s 731 mmHg 25%
    02:00 +25°C° 0 mm 0 m/s 731 mmHg 27%
    03:00 +24°C° 0 mm 0 m/s 731 mmHg 28%
    04:00 +24°C° 0 mm 0 m/s 731 mmHg 32%
    05:00 +23°C° 0 mm 0 m/s 731 mmHg 35%
    06:00 +23°C° 0 mm 0 m/s 731 mmHg 38%
    07:00 +25°C° 0 mm 0 m/s 732 mmHg 37%
    08:00 +28°C° 0 mm 0 m/s 733 mmHg 37%
    09:00 +30°C° 0 mm 0 m/s 733 mmHg 36%
    10:00 +34°C° 0 mm 1 m/s 733 mmHg 31%
    11:00 +36°C° 0 mm 1 m/s 733 mmHg 25%
    12:00 +40°C° 0 mm 1 m/s 732 mmHg 20%
    13:00 +40°C° 0 mm 2 m/s 732 mmHg 17%
    14:00 +40°C° 0 mm 2 m/s 731 mmHg 15%
    15:00 +40°C° 0 mm 3 m/s 730 mmHg 13%
    16:00 +38°C° 0 mm 2 m/s 730 mmHg 15%
    17:00 +35°C° 0 mm 1 m/s 730 mmHg 16%
    18:00 +33°C° 0 mm 1 m/s 730 mmHg 18%
    19:00 +32°C° 0 mm 1 m/s 730 mmHg 19%
    20:00 +31°C° 0 mm 1 m/s 731 mmHg 20%
    21:00 +28°C° 0 mm 0 m/s 732 mmHg 20%
    22:00 +27°C° 0 mm 0 m/s 732 mmHg 21%
    23:00 +26°C° 0 mm 0 m/s 732 mmHg 21%

    28 Noiembrie, Joi

    Timp Temperatura Precipitaţii Vânt Presiune Umiditate
    00:00 +26°C° 0 mm 0 m/s 732 mmHg 22%
    01:00 +25°C° 0 mm 0 m/s 731 mmHg 23%
    02:00 +25°C° 0 mm 0 m/s 731 mmHg 24%
    03:00 +24°C° 0 mm 0 m/s 731 mmHg 25%
    04:00 +23°C° 0 mm 0 m/s 731 mmHg 26%
    05:00 +23°C° 0 mm 0 m/s 731 mmHg 28%
    06:00 +23°C° 0 mm 0 m/s 731 mmHg 29%
    07:00 +25°C° 0 mm 0 m/s 732 mmHg 26%
    08:00 +28°C° 0 mm 0 m/s 733 mmHg 24%
    09:00 +30°C° 0 mm 0 m/s 733 mmHg 22%
    10:00 +34°C° 0 mm 1 m/s 733 mmHg 19%
    11:00 +36°C° 0 mm 1 m/s 732 mmHg 16%
    12:00 +39°C° 0 mm 2 m/s 732 mmHg 14%
    13:00 +40°C° 0 mm 2 m/s 731 mmHg 13%
    14:00 +40°C° 0 mm 2 m/s 731 mmHg 12%
    15:00 +40°C° 0 mm 3 m/s 730 mmHg 11%
    16:00 +38°C° 0 mm 2 m/s 730 mmHg 14%
    17:00 +36°C° 0 mm 2 m/s 730 mmHg 16%
    18:00 +33°C° 0 mm 1 m/s 730 mmHg 18%
    19:00 +32°C° 0 mm 1 m/s 730 mmHg 19%
    20:00 +31°C° 0 mm 1 m/s 731 mmHg 20%
    21:00 +30°C° 0 mm 1 m/s 731 mmHg 20%
    22:00 +29°C° 0 mm 1 m/s 732 mmHg 21%
    23:00 +29°C° 0 mm 1 m/s 732 mmHg 22%
    Arată mai mult